Natchitoches, LA

9:02 AM CDT on August 29, 2016 (GMT -0500)
Natchitoches Regional

Weather History for KIER - November, 2013

Change the Weather History Date:

Friday, November 29, 2013

  Actual Average Record
Temperature  
Mean Temperature 42 °F -  
Max Temperature 59 °F 61 °F 80 °F (1933)
Min Temperature 26 °F 39 °F 20 °F (1976)
Degree Days  
Heating Degree Days 22    
Moisture  
Dew Point 32 °F    
Average Humidity 81    
Maximum Humidity 100    
Minimum Humidity 31    
Precipitation  
Precipitation 0.00 in - - ()
Sea Level Pressure  
Sea Level Pressure 30.49 in    
Wind  
Wind Speed 0 mph (ESE)    
Max Wind Speed 5 mph    
Max Gust Speed -    
Visibility 9 miles    
Events Fog    
Averages and records for this station are not official NWS values.
T = Trace of Precipitation, MM = Missing Value Source: NWS Daily Summary

Daily Weather History Graph

Daily Weather History Graph

Search for Another Location

Airport or City:

Trip Planner

Search our weather history database for the weather conditions in past years. The results will help you decide how hot, cold, wet, or windy it might be!

Date:

Astronomy

Nov. 29, 2013 Rise Set
Actual Time 6:53 AM CST 5:08 PM CST
Civil Twilight 6:26 AM CST 5:34 PM CST
Nautical Twilight 5:56 AM CST 6:05 PM CST
Astronomical Twilight 5:27 AM CST 6:34 PM CST
Moon 3:10 AM CST 2:43 PM CST
Length of Visible Light 11h 08m
Length of Day
10h 15m
Waning Crescent, 14% of the Moon is Illuminated
Nov 29
Waning Crescent
Dec 2
New
Dec 9
First Quarter
Dec 17
Full
Dec 25
Last Quarter

Hourly Weather History & Observations

Time (CST) Temp. Dew Point Humidity Pressure Visibility Wind Dir Wind Speed Gust Speed Precip Events Conditions
12:15 AM 29.3 °F 29.1 °F 99% 30.51 in 10.0 mi Calm Calm - N/A   Clear
12:35 AM 28.4 °F 28.2 °F 99% 30.50 in 10.0 mi Calm Calm - N/A   Clear
12:55 AM 29.1 °F 28.9 °F 99% 30.50 in 10.0 mi Calm Calm - N/A   Clear
1:15 AM 28.9 °F 28.9 °F 100% 30.50 in 10.0 mi Calm Calm - N/A   Clear
1:35 AM 28.8 °F 28.4 °F 99% 30.50 in 10.0 mi Calm Calm - N/A   Clear
1:55 AM 28.4 °F 28.4 °F 100% 30.50 in 10.0 mi Calm Calm - N/A   Clear
2:15 AM 28.2 °F 28.2 °F 100% 30.50 in 10.0 mi Calm Calm - N/A   Clear
2:35 AM 28.0 °F 27.9 °F 99% 30.50 in 10.0 mi Calm Calm - N/A   Clear
2:55 AM 27.9 °F 27.5 °F 99% 30.50 in 10.0 mi Calm Calm - N/A   Clear
3:15 AM 27.5 °F 27.3 °F 99% 30.51 in 10.0 mi Calm Calm - N/A   Clear
3:35 AM 27.5 °F 27.5 °F 100% 30.50 in 1.5 mi Calm Calm - N/A   Mist
3:55 AM 27.7 °F 27.7 °F 100% 30.51 in 10.0 mi Calm Calm - N/A   Scattered Clouds
4:15 AM 27.1 °F 27.0 °F 99% 30.51 in 10.0 mi Calm Calm - N/A   Scattered Clouds
4:35 AM 27.3 °F 27.3 °F 100% 30.51 in 1.0 mi Calm Calm - N/A   Mostly Cloudy
4:55 AM 27.5 °F 27.5 °F 100% 30.51 in 0.8 mi Calm Calm - N/A   Overcast
5:15 AM 26.6 °F 26.6 °F 100% 30.52 in 0.5 mi Calm Calm - N/A Fog Light Freezing Fog
5:35 AM 27.1 °F 27.1 °F 100% 30.52 in 0.8 mi Calm Calm - N/A   Scattered Clouds
5:55 AM 27.0 °F 27.0 °F 100% 30.53 in 1.0 mi Calm Calm - N/A   Mostly Cloudy
6:15 AM 27.0 °F 27.0 °F 100% 30.53 in 1.5 mi Calm Calm - N/A   Mostly Cloudy
6:35 AM 26.6 °F 26.6 °F 100% 30.53 in 2.0 mi Calm Calm - N/A   Clear
6:55 AM 26.4 °F 26.4 °F 100% 30.54 in 1.0 mi Calm Calm - N/A   Mist
7:15 AM 26.2 °F 26.1 °F 99% 30.55 in 5.0 mi Calm Calm - N/A   Clear
7:35 AM 26.8 °F 26.6 °F 99% 30.55 in 7.0 mi Calm Calm - N/A   Clear
7:55 AM 29.7 °F 29.7 °F 100% 30.55 in 7.0 mi Calm Calm - N/A   Clear
8:15 AM 32.0 °F 31.6 °F 99% 30.55 in 10.0 mi Calm Calm - N/A   Clear
8:35 AM 33.8 °F 32.9 °F 96% 30.55 in 10.0 mi Calm Calm - N/A   Clear
8:55 AM 37.2 °F 34.9 °F 91% 30.55 in 10.0 mi Calm Calm - N/A   Clear
9:15 AM 39.9 °F 36.0 °F 86% 30.55 in 10.0 mi Calm Calm - N/A   Clear
9:35 AM 42.8 °F 34.5 °F 73% 30.56 in 10.0 mi Calm Calm - N/A   Clear
9:55 AM 44.6 °F 35.1 °F 69% 30.56 in 10.0 mi Calm Calm - N/A   Clear
10:15 AM 44.4 °F 34.3 °F 68% 30.56 in 10.0 mi Calm Calm - N/A   Clear
10:35 AM 48.2 °F 32.0 °F 54% 30.56 in 10.0 mi Calm Calm - N/A   Clear
10:55 AM 49.5 °F 32.5 °F 52% 30.55 in 10.0 mi Calm Calm - N/A   Clear
11:15 AM 50.5 °F 32.9 °F 51% 30.54 in 10.0 mi ESE 4.6 mph - N/A   Clear
11:35 AM 52.0 °F 34.0 °F 50% 30.53 in 10.0 mi Calm Calm - N/A   Clear
11:55 AM 52.5 °F 35.1 °F 51% 30.53 in 10.0 mi Calm Calm - N/A   Clear
12:15 PM 53.2 °F 33.8 °F 48% 30.51 in 10.0 mi Calm Calm - N/A   Clear
12:35 PM 54.9 °F 34.0 °F 45% 30.50 in 10.0 mi Calm Calm - N/A   Clear
12:55 PM 55.6 °F 33.4 °F 43% 30.49 in 10.0 mi Calm Calm - N/A   Clear
1:15 PM 56.1 °F 32.2 °F 40% 30.48 in 10.0 mi Calm Calm - N/A   Clear
1:35 PM 57.2 °F 31.1 °F 37% 30.47 in 10.0 mi Calm Calm - N/A   Clear
1:55 PM 57.7 °F 31.6 °F 37% 30.47 in 10.0 mi Calm Calm - N/A   Clear
2:15 PM 58.1 °F 30.4 °F 35% 30.46 in 10.0 mi Calm Calm - N/A   Clear
2:35 PM 58.1 °F 30.2 °F 35% 30.46 in 5.0 mi Calm Calm - N/A   Haze
2:55 PM 58.3 °F 28.8 °F 33% 30.45 in 10.0 mi Calm Calm - N/A   Clear
3:15 PM 59.0 °F 28.4 °F 31% 30.45 in 10.0 mi Calm Calm - N/A   Clear
3:35 PM 58.3 °F 30.9 °F 35% 30.44 in 10.0 mi Calm Calm - N/A   Clear
3:55 PM 57.9 °F 30.6 °F 35% 30.44 in 10.0 mi Calm Calm - N/A   Clear
4:15 PM 57.2 °F 32.4 °F 39% 30.44 in 10.0 mi Calm Calm - N/A   Clear
4:35 PM 55.8 °F 33.6 °F 43% 30.44 in 10.0 mi Calm Calm - N/A   Clear
4:55 PM 53.6 °F 34.5 °F 48% 30.43 in 10.0 mi Calm Calm - N/A   Clear
5:15 PM 47.1 °F 38.3 °F 71% 30.43 in 10.0 mi Calm Calm - N/A   Clear
5:35 PM 43.0 °F 38.5 °F 84% 30.43 in 10.0 mi Calm Calm - N/A   Clear
5:55 PM 41.5 °F 38.7 °F 89% 30.43 in 10.0 mi Calm Calm - N/A   Clear
6:15 PM 41.4 °F 38.5 °F 89% 30.43 in 10.0 mi Calm Calm - N/A   Clear
6:35 PM 39.2 °F 37.4 °F 93% 30.43 in 10.0 mi Calm Calm - N/A   Clear
6:55 PM 39.0 °F 37.6 °F 95% 30.44 in 10.0 mi Calm Calm - N/A   Clear
7:15 PM 37.6 °F 36.5 °F 96% 30.45 in 10.0 mi Calm Calm - N/A   Clear
7:35 PM 36.5 °F 35.6 °F 97% 30.44 in 10.0 mi Calm Calm - N/A   Clear
7:55 PM 36.3 °F 35.8 °F 98% 30.44 in 10.0 mi Calm Calm - N/A   Clear
8:15 PM 35.8 °F 35.1 °F 97% 30.44 in 10.0 mi Calm Calm - N/A   Clear
8:35 PM 35.1 °F 34.9 °F 99% 30.44 in 10.0 mi Calm Calm - N/A   Clear
8:55 PM 34.3 °F 34.0 °F 99% 30.45 in 10.0 mi Calm Calm - N/A   Clear
9:15 PM 34.3 °F 34.2 °F 99% 30.44 in 10.0 mi Calm Calm - N/A   Clear
9:35 PM 34.0 °F 33.8 °F 99% 30.45 in 10.0 mi Calm Calm - N/A   Clear
9:55 PM 32.9 °F 32.4 °F 98% 30.45 in 10.0 mi Calm Calm - N/A   Clear
10:15 PM 32.2 °F 32.2 °F 100% 30.44 in 10.0 mi Calm Calm - N/A   Clear
10:35 PM 32.4 °F 32.4 °F 100% 30.44 in 10.0 mi Calm Calm - N/A   Clear
10:55 PM 32.2 °F 32.2 °F 100% 30.42 in 10.0 mi Calm Calm - N/A   Clear
11:15 PM 32.0 °F 32.0 °F 100% 30.42 in 10.0 mi Calm Calm - N/A   Clear
11:35 PM 32.0 °F 32.0 °F 100% 30.42 in 10.0 mi Calm Calm - N/A   Clear
11:55 PM 31.6 °F 31.6 °F 100% 30.42 in 10.0 mi Calm Calm - N/A   Clear